Simultaneous Nadir Overpasses (SNOs) Predictions

Prediction of SNOs between METOP-A and NOAA-19 Satellite Orbit:

Table of predicted SNOs for the next 14.0 days since TLE Epoch: 8/29/2015
Index Date (METOP-A) Time (METOP-A) Lat,Lon (METOP-A) SZA (METOP-A ) Date (NOAA-19) Time (NOAA-19) Lat,Lon (NOAA-19) SZA (NOAA-19 ) Distance(km) Time Diff (sec)
1 08/29/2015 04:05:07 75.25, 116.08 65.70 08/29/2015 04:05:25 75.25, 116.11 65.70 0.86 18
2 08/29/2015 04:55:49 -75.24, -76.63 114.30 08/29/2015 04:56:30 -75.23, -76.60 114.31 1.49 41
3 08/29/2015 05:46:29 75.23, 90.68 65.71 08/29/2015 05:47:27 75.22, 90.68 65.70 0.51 58
4 08/29/2015 06:37:17 -74.93,-102.85 114.57 08/29/2015 06:38:27 -74.97,-101.32 114.55 44.33 70
5 09/08/2015 12:24:47 75.39, -8.47 69.62 09/08/2015 12:23:33 75.41, -8.74 69.64 7.90 74
6 09/08/2015 13:15:30 -75.33, 158.69 110.43 09/08/2015 13:14:35 -75.32, 158.78 110.44 3.19 55
7 09/08/2015 14:06:10 75.32, -34.01 69.58 09/08/2015 14:05:34 75.34, -34.02 69.60 1.84 36
8 09/08/2015 14:56:52 -75.31, 133.29 110.42 09/08/2015 14:56:37 -75.29, 133.35 110.44 2.75 15
9 09/08/2015 15:47:32 75.30, -59.42 69.58 09/08/2015 15:47:36 75.31, -59.46 69.60 1.89 4
10 09/08/2015 16:38:14 -75.29, 107.89 110.42 09/08/2015 16:38:39 -75.27, 107.91 110.44 2.55 25
11 09/08/2015 17:28:54 75.28, -84.82 69.59 09/08/2015 17:29:38 75.29, -84.89 69.60 2.30 44
12 09/08/2015 18:19:36 -75.27, 82.48 110.41 09/08/2015 18:20:41 -75.25, 82.48 110.44 2.67 65
13 09/08/2015 19:10:24 74.87,-111.32
